Flag for Cape Verde Weather past 2 weeks in Santa Maria, Cape Verde

Now
70 °F

Passing clouds.


Feels Like: 70 °F
Forecast: N/A
Wind: 16 mph from Northeast

Location: Sal


UV Index: N/A

Visibility: N/A


Pressure: 29.98 "Hg

Humidity: 83%

Dew point: 64 °F

Location of Santa MariaLocation

Historic Weather in Santa Maria

°F

Santa Maria temperature yesterday

Maximum temperature yesterday: 77 °F (at 11:00 AM)
Minimum temperature yesterday: 68 °F (at 3:00 AM)
Average temperature yesterday: 73 °F

Past Weeks' High & Low Weather Summary

 TemperatureHumidityPressure
High81 °F (Apr 5, 1:00 PM)94% (Apr 5, 3:00 AM)30.07 "Hg (Apr 5, 3:00 AM)
Low66 °F (Apr 2, 4:00 AM)39% (Apr 5, 3:00 PM)29.92 "Hg (Apr 10, 4:00 PM)
Average72 °F72%29.99 "Hg
* Reported Apr 1 8:00 PM — Apr 16 8:00 PM, Santa Maria, Weather by CustomWeather, © 2014

Note: Actual official high and low records may vary slightly from our data, if they occured in-between our weather recording intervals... More about our weather records

Advertising

Historic Weather Conditions — Data for Previous 24 hours

 ConditionsComfort  
Time TempWeatherWind HumidityBarometerVisibility
8:00 PM
Apr 16
70 °FPassing clouds.16 mph83%29.98 "HgN/A
7:00 PM72 °FPassing clouds.15 mph78%29.95 "HgN/A
6:00 PM73 °FPassing clouds.17 mph74%29.95 "HgN/A
5:00 PM75 °FPassing clouds.17 mph69%29.92 "HgN/A
4:00 PM77 °FScattered clouds.18 mph65%29.92 "HgN/A
3:00 PM79 °FScattered clouds.21 mph61%29.92 "HgN/A
2:00 PM81 °FPassing clouds.20 mph54%29.92 "HgN/A
1:00 PM81 °FPassing clouds.20 mph58%29.92 "HgN/A
12:00 PM79 °FPassing clouds.20 mph61%29.95 "HgN/A
11:00 AM79 °FPassing clouds.18 mph61%29.95 "HgN/A
10:00 AM75 °FPartly sunny.17 mph74%29.98 "HgN/A
9:00 AM73 °FPartly sunny.17 mph78%29.98 "HgN/A
8:00 AM72 °FBroken clouds.14 mph78%29.95 "HgN/A
7:00 AM68 °FScattered clouds.13 mph88%29.95 "HgN/A
6:00 AM68 °FScattered clouds.10 mph88%29.95 "HgN/A
5:00 AM68 °FPartly sunny.10 mph88%29.92 "HgN/A
4:00 AM68 °FPassing clouds.13 mph88%29.92 "HgN/A
3:00 AM68 °FPassing clouds.14 mph83%29.95 "HgN/A
2:00 AM70 °FPassing clouds.15 mph78%29.95 "HgN/A
1:00 AM70 °FPassing clouds.15 mph78%29.98 "HgN/A
12:00 AM70 °FPassing clouds.14 mph83%30.01 "HgN/A
11:00 PM
Apr 15
70 °FPassing clouds.14 mph78%30.01 "HgN/A
Weather by CustomWeather, © 2014

See weather overview